• In Uzbekistan
  • List of Countries
  • For 7 days
  • Water Temperature
  • Weather Map
  • Weather Widgets
  • user-avatar
    Login

    Hourly Weather Artashat

    Today, 18 November, Monday

    Time Temperature Precipitation Wind Pressure Humidity
    00:00 -4°C° 0 mm 0 mps 603 mmHg 57%
    01:00 -4°C° 0 mm 0 mps 602 mmHg 58%
    02:00 -4°C° 0 mm 0 mps 602 mmHg 59%
    03:00 -4°C° 0 mm 0 mps 601 mmHg 59%
    04:00 -4°C° 0 mm 0 mps 601 mmHg 62%
    05:00 -5°C° 0 mm 0 mps 601 mmHg 64%
    06:00 -5°C° 0 mm 0 mps 601 mmHg 66%
    07:00 -3°C° 0 mm 0 mps 602 mmHg 58%
    08:00 -1°C° 0 mm 0 mps 603 mmHg 50%
    09:00 0°C° 0 mm 0 mps 604 mmHg 42%
    10:00 +1°C° 0 mm 0 mps 604 mmHg 40%
    11:00 +3°C° 0 mm 1 mps 604 mmHg 37%
    12:00 +4°C° 0 mm 1 mps 603 mmHg 35%
    13:00 +4°C° 0 mm 1 mps 603 mmHg 34%
    14:00 +4°C° 0 mm 1 mps 603 mmHg 33%
    15:00 +5°C° 0 mm 1 mps 603 mmHg 33%
    16:00 +3°C° 0 mm 1 mps 602 mmHg 38%
    17:00 0°C° 0 mm 0 mps 602 mmHg 43%
    18:00 -1°C° 0 mm 0 mps 602 mmHg 49%
    19:00 -2°C° 0 mm 0 mps 602 mmHg 49%
    20:00 -2°C° 0 mm 0 mps 601 mmHg 49%
    21:00 -2°C° 0 mm 0 mps 601 mmHg 49%
    22:00 -2°C° 0 mm 0 mps 601 mmHg 49%
    23:00 -1°C° 0 mm 1 mps 601 mmHg 49%

    Tomorrow, 19 November, Tuesday

    Time Temperature Precipitation Wind Pressure Humidity
    00:00 -2°C° 0 mm 1 mps 601 mmHg 49%
    01:00 -2°C° 0 mm 1 mps 601 mmHg 49%
    02:00 -2°C° 0 mm 1 mps 600 mmHg 49%
    03:00 -3°C° 0 mm 1 mps 600 mmHg 50%
    04:00 -3°C° 0 mm 1 mps 600 mmHg 50%
    05:00 -3°C° 0 mm 1 mps 600 mmHg 51%
    06:00 -3°C° 0 mm 1 mps 600 mmHg 51%
    07:00 -1°C° 0 mm 1 mps 601 mmHg 45%
    08:00 0°C° 0 mm 1 mps 602 mmHg 38%
    09:00 +2°C° 0 mm 1 mps 603 mmHg 31%
    10:00 +3°C° 0 mm 1 mps 603 mmHg 29%
    11:00 +4°C° 0 mm 1 mps 603 mmHg 27%
    12:00 +5°C° 0 mm 1 mps 602 mmHg 24%
    13:00 +6°C° 0 mm 1 mps 602 mmHg 23%
    14:00 +6°C° 0 mm 1 mps 602 mmHg 22%
    15:00 +6°C° 0 mm 1 mps 602 mmHg 22%
    16:00 +4°C° 0 mm 1 mps 601 mmHg 26%
    17:00 +2°C° 0 mm 1 mps 601 mmHg 30%
    18:00 0°C° 0 mm 0 mps 600 mmHg 34%
    19:00 -1°C° 0 mm 0 mps 600 mmHg 34%
    20:00 -1°C° 0 mm 0 mps 600 mmHg 35%
    21:00 -1°C° 0 mm 0 mps 600 mmHg 35%
    22:00 -2°C° 0 mm 0 mps 600 mmHg 36%
    23:00 -2°C° 0 mm 0 mps 600 mmHg 37%

    Day after tomorrow, 20 November, Wednesday

    Time Temperature Precipitation Wind Pressure Humidity
    00:00 -2°C° 0 mm 0 mps 600 mmHg 38%
    01:00 -2°C° 0 mm 0 mps 600 mmHg 38%
    02:00 -3°C° 0 mm 0 mps 599 mmHg 38%
    03:00 -3°C° 0 mm 0 mps 599 mmHg 39%
    04:00 -3°C° 0 mm 0 mps 599 mmHg 40%
    05:00 -4°C° 0 mm 0 mps 599 mmHg 40%
    06:00 -4°C° 0 mm 0 mps 598 mmHg 41%
    07:00 -2°C° 0 mm 0 mps 599 mmHg 36%
    08:00 0°C° 0 mm 0 mps 601 mmHg 31%
    09:00 +2°C° 0 mm 0 mps 602 mmHg 25%
    10:00 +3°C° 0 mm 0 mps 601 mmHg 25%
    11:00 +5°C° 0 mm 1 mps 601 mmHg 24%
    12:00 +6°C° 0 mm 1 mps 601 mmHg 23%
    13:00 +6°C° 0 mm 1 mps 601 mmHg 24%
    14:00 +6°C° 0 mm 1 mps 601 mmHg 24%
    15:00 +6°C° 0 mm 1 mps 600 mmHg 25%
    16:00 +4°C° 0 mm 1 mps 600 mmHg 30%
    17:00 +2°C° 0 mm 1 mps 599 mmHg 36%
    18:00 0°C° 0 mm 1 mps 598 mmHg 41%
    19:00 -1°C° 0 mm 0 mps 598 mmHg 42%
    20:00 -1°C° 0 mm 0 mps 598 mmHg 42%
    21:00 -2°C° 0 mm 0 mps 598 mmHg 43%
    22:00 -2°C° 0 mm 0 mps 597 mmHg 43%
    23:00 -3°C° 0 mm 0 mps 597 mmHg 44%

    21 November, Thursday

    Time Temperature Precipitation Wind Pressure Humidity
    00:00 -3°C° 0 mm 0 mps 597 mmHg 44%
    01:00 -3°C° 0 mm 0 mps 597 mmHg 45%
    02:00 -3°C° 0 mm 0 mps 596 mmHg 47%
    03:00 -4°C° 0 mm 0 mps 596 mmHg 48%
    04:00 -4°C° 0 mm 0 mps 596 mmHg 49%
    05:00 -4°C° 0 mm 0 mps 596 mmHg 51%
    06:00 -4°C° 0 mm 0 mps 596 mmHg 52%
    07:00 -2°C° 0 mm 0 mps 597 mmHg 45%
    08:00 0°C° 0 mm 0 mps 598 mmHg 38%
    09:00 +2°C° 0 mm 0 mps 599 mmHg 31%
    10:00 +2°C° 0 mm 0 mps 599 mmHg 30%
    11:00 +4°C° 0 mm 1 mps 599 mmHg 29%
    12:00 +5°C° 0 mm 1 mps 599 mmHg 29%
    13:00 +5°C° 0 mm 1 mps 599 mmHg 29%
    14:00 +5°C° 0 mm 1 mps 599 mmHg 30%
    15:00 +5°C° 0 mm 1 mps 599 mmHg 30%
    16:00 +4°C° 0 mm 1 mps 598 mmHg 36%
    17:00 +2°C° 0 mm 1 mps 598 mmHg 41%
    18:00 -1°C° 0 mm 0 mps 597 mmHg 47%
    19:00 -1°C° 0 mm 0 mps 598 mmHg 48%
    20:00 -2°C° 0 mm 0 mps 598 mmHg 49%
    21:00 -1°C° 0 mm 1 mps 598 mmHg 50%
    22:00 -1°C° 0 mm 1 mps 598 mmHg 52%
    23:00 -3°C° 0 mm 0 mps 598 mmHg 55%

    22 November, Friday

    Time Temperature Precipitation Wind Pressure Humidity
    00:00 -3°C° 0 mm 0 mps 599 mmHg 58%
    01:00 -4°C° 0 mm 0 mps 599 mmHg 61%
    02:00 -4°C° 0 mm 0 mps 599 mmHg 64%
    03:00 -4°C° 0 mm 0 mps 599 mmHg 68%
    04:00 -5°C° 0 mm 0 mps 599 mmHg 70%
    05:00 -5°C° 0 mm 0 mps 599 mmHg 73%
    06:00 -5°C° 0 mm 0 mps 600 mmHg 76%
    07:00 -4°C° 0 mm 0 mps 601 mmHg 70%
    08:00 -2°C° 0 mm 1 mps 602 mmHg 64%
    09:00 0°C° 0 mm 1 mps 603 mmHg 57%
    10:00 +1°C° 0 mm 1 mps 603 mmHg 56%
    11:00 -1°C° 0 mm 2 mps 603 mmHg 54%
    12:00 +1°C° 0 mm 2 mps 603 mmHg 52%
    13:00 +1°C° 0 mm 2 mps 603 mmHg 52%
    14:00 +1°C° 0 mm 2 mps 603 mmHg 52%
    15:00 +1°C° 0 mm 2 mps 602 mmHg 51%
    16:00 -1°C° 0 mm 2 mps 602 mmHg 58%
    17:00 0°C° 0 mm 1 mps 602 mmHg 64%
    18:00 -1°C° 0 mm 1 mps 602 mmHg 70%
    19:00 -2°C° 0 mm 1 mps 602 mmHg 72%
    20:00 -2°C° 0 mm 1 mps 602 mmHg 74%
    21:00 -2°C° 0 mm 1 mps 602 mmHg 75%
    22:00 -2°C° 0 mm 1 mps 602 mmHg 77%
    23:00 -3°C° 0 mm 1 mps 602 mmHg 78%

    23 November, Saturday

    Time Temperature Precipitation Wind Pressure Humidity
    00:00 -4°C° 0 mm 0 mps 602 mmHg 80%
    01:00 -4°C° 0 mm 0 mps 602 mmHg 80%
    02:00 -4°C° 0 mm 0 mps 602 mmHg 80%
    03:00 -4°C° 0 mm 0 mps 602 mmHg 81%
    04:00 -4°C° 0 mm 0 mps 602 mmHg 80%
    05:00 -4°C° 0 mm 0 mps 602 mmHg 80%
    06:00 -4°C° 0 mm 0 mps 602 mmHg 80%
    07:00 -4°C° 0 mm 0 mps 602 mmHg 75%
    08:00 -3°C° 0 mm 0 mps 603 mmHg 70%
    09:00 -1°C° 0 mm 1 mps 603 mmHg 65%
    10:00 0°C° 0 mm 1 mps 603 mmHg 63%
    11:00 +1°C° 0 mm 1 mps 603 mmHg 60%
    12:00 +1°C° 0 mm 1 mps 603 mmHg 58%
    13:00 +1°C° 0 mm 1 mps 602 mmHg 58%
    14:00 +1°C° 0 mm 1 mps 602 mmHg 58%
    15:00 +1°C° 0 mm 1 mps 602 mmHg 58%
    16:00 +1°C° 0 mm 1 mps 602 mmHg 62%
    17:00 0°C° 0 mm 1 mps 602 mmHg 65%
    18:00 -1°C° 0 mm 1 mps 602 mmHg 69%
    19:00 -2°C° 0 mm 0 mps 601 mmHg 71%
    20:00 -3°C° 0 mm 0 mps 601 mmHg 74%
    21:00 -3°C° 0 mm 0 mps 601 mmHg 77%
    22:00 -4°C° 0 mm 0 mps 601 mmHg 78%
    23:00 -4°C° 0 mm 0 mps 601 mmHg 80%
    Show more